Regional Weather Roundup
Issued by NWS Midland/Odessa, TX

Skip options and go directly to product.
Home | Oldest Version | Previous Version | Current Version | All | Graphics & Text | Save Text | Print | Product List | Glossary On

Skip product version selection by date and time.   
123
ASUS44 KMAF 231610
RWRMAF
MIDLAND AREA WEATHER ROUNDUP
NATIONAL WEATHER SERVICE MIDLAND TX
1000 AM CST SUN NOV 23 2014

...IN SOUTHWEST TEXAS AND SOUTHEAST NEW MEXICO...

CITY           SKY/WX    TMP DP  RH WIND       PRES   REMARKS
ALPINE         SUNNY     59  30  33 SW14      29.92S
ANDREWS        FAIR      61  21  21 W22G28    29.70F
ARTESIA        NOT AVBL
BIG SPRING     SUNNY     59  33  37 W14       29.70R
CARLSBAD       SUNNY     63  20  19 W30G43    29.73R
DRYDEN           N/A     71  34  25 W25G37    29.75R
FORT STOCKTON  SUNNY     65  28  24 W22G37    29.78S
GUAD PASS      SUNNY     52  22  30 W36G48    29.85R
HOBBS          SUNNY     57  19  23 W24       29.73S
MARFA          SUNNY     57  28  33 W30G40    29.85F
MIDLAND AIRPK  SUNNY     62  28  28 W10G17    29.71S
MIDLAND INTL   SUNNY     61  26  26 MISG      29.70F
ODESSA         SUNNY     61  22  22 W17       29.72S
PECOS          SUNNY     65  26  22 W39G54    29.76R
PRESIDIO       FAIR      59  36  41 CALM      29.91R
SEMINOLE       SUNNY     59  22  24 W21       29.71F
SNYDER         SUNNY     61  36  39 W23G37    29.60S
WINK           SUNNY     65  21  18 W23G37    29.72S
$$
...OTHER STATIONS IN TEXAS...

CITY           SKY/WX    TMP DP  RH WIND       PRES   REMARKS
ABILENE        SUNNY     63  41  44 SW9       29.59S
AMARILLO       MOSUNNY   53  28  38 N32G41    29.63R
AUSTIN         SUNNY     68  54  60 SW10      29.66S
BROWNSVILLE    MOSUNNY   70  69  97 S5        29.81R FOG
CORPUS CHRISTI SUNNY     66  61  84 SW13      29.77R
DALLAS FTW     MOSUNNY   62  53  72 S17       29.51F
DEL RIO        SUNNY     60  51  72 CALM      29.74R
EL PASO        MOSUNNY   58  23  26 W21G36    29.92R
HOUSTON INT    MOSUNNY   67  59  75 W12G18    29.66F
LUBBOCK        SUNNY     62  21  20 W32G45    29.58R
SAN ANGELO     SUNNY     65  37  35 W20G28    29.67S
SAN ANTONIO    SUNNY     67  51  56 W10       29.71S
WACO           SUNNY     63  55  75 SW14      29.59F
WICHITA FALLS  NOT AVBL
$$
...OTHER LOCATIONS IN NEW MEXICO...

CITY           SKY/WX    TMP DP  RH WIND       PRES   REMARKS
ALAMAGORDO     SUNNY     54  19  26 S8        29.89S
ALBUQUERQUE    PTSUNNY   42  26  53 NW22G32   29.90R WCI  33
CANNON AFB     SUNNY     54  21  27 W25G31    29.66S
CLOVIS         SUNNY     55  21  26 W31G37    29.64R
HOLLOMAN AFB   MOSUNNY   53  19  26 SE7       29.88R
ROSWELL        SUNNY     62  23  22 W22G31    29.73R
RUIDOSO        MOSUNNY   45  21  39 W24G41    29.86R WCI  36
SANTA FE       PTSUNNY   40  22  48 W16       29.79R WCI  31
TRUTH OR CONSE SUNNY     54  24  31 NW22G30   29.90R
TUCUMCARI        N/A     53  24  32 N6        29.67R
$$

USA.gov is the U.S. government's official web portal to all federal, state and local government web resources and services.